Flag for Canada Weather past 2 weeks in Waterloo, Ontario, Canada

Now
73 °F

Partly sunny.


Feels Like: 77 °F
Forecast: 50 / 71 °F
Wind: 9 mph from West

Location: Waterloo Well

Current Time: Jul 31, 2014 at 4:06:56 PM

Latest Report: Jul 31, 2014 at 3:00 PM


Visibility: 9 mi

Pressure: 30.02 "Hg

Humidity: 53%

Dew point: 55 °F

Location of WaterlooLocation

Historic Weather in Waterloo — Graph

°F

Waterloo temperature yesterday

Maximum temperature yesterday: 72 °F (at 3:49 PM)
Minimum temperature yesterday: 50 °F (at 5:47 AM)
Average temperature yesterday: 60 °F

Past Weeks' High & Low Weather Summary

 TemperatureHumidityPressure
High82 °F (Jul 21, 4:00 PM)100% (Jul 17, 2:58 AM)30.26 "Hg (Jul 17, 2:58 AM)
Low45 °F (Jul 17, 4:00 AM)34% (Jul 17, 3:00 PM)29.59 "Hg (Jul 28, 12:57 AM)
Average63 °F78%29.99 "Hg
* Reported Jul 16 3:02 PM — Jul 31 3:00 PM, Waterloo, Weather by CustomWeather, © 2014

Note: Actual official high and low records may vary slightly from our data, if they occured in-between our weather recording intervals... More about our weather records

Advertising

Waterloo weather history for previous 24 hours

 ConditionsComfort  
Time TempWeatherWind HumidityBarometerVisibility
3:00 PM
Jul 31
73 °FPartly sunny.9 mph53%30.02 "Hg9 mi
2:00 PM73 °FPartly sunny.14 mph50%30.02 "Hg9 mi
1:00 PM72 °FPartly sunny.9 mph50%30.01 "Hg9 mi
12:00 PM68 °FPassing clouds.12 mph64%30.01 "Hg9 mi
11:00 AM66 °FPartly sunny.9 mph68%30.00 "Hg9 mi
10:00 AM64 °FSunny.7 mph68%30.01 "Hg9 mi
9:00 AM59 °FScattered clouds.3 mph82%30.00 "Hg8 mi
8:00 AM57 °FSunny.5 mph88%30.00 "Hg9 mi
7:00 AM50 °FPassing clouds.3 mph100%29.99 "Hg9 mi
6:00 AM52 °FPassing clouds.3 mph94%29.98 "Hg9 mi
5:00 AM52 °FOvercast.No wind94%29.98 "Hg9 mi
4:00 AM52 °FPassing clouds.6 mph94%29.99 "Hg9 mi
3:00 AM50 °FPassing clouds.2 mph94%29.98 "Hg9 mi
2:00 AM48 °FClear.2 mph100%29.98 "Hg9 mi
1:00 AM50 °FPassing clouds.2 mph100%29.98 "Hg9 mi
12:00 AM54 °FClear.No wind94%30.00 "Hg9 mi
11:00 PM
Jul 30
55 °FClear.No wind88%30.00 "Hg9 mi
10:00 PM57 °FPassing clouds.2 mph82%30.00 "Hg9 mi
9:00 PM61 °FPassing clouds.3 mph72%29.98 "Hg9 mi
8:00 PM63 °FSunny.6 mph64%29.98 "Hg9 mi
7:00 PM66 °FSunny.10 mph56%29.97 "Hg9 mi
6:00 PM70 °FSunny.10 mph50%29.96 "Hg9 mi
5:00 PM70 °FScattered clouds.12 mph53%29.95 "Hg9 mi
4:00 PM70 °FBroken clouds.14 mph57%29.95 "Hg9 mi
Weather by CustomWeather, © 2014

See weather overviewHow to use our weather pages